TimeAKST,TemperatureF,Dew PointF,Humidity,Sea Level PressureIn,VisibilityMPH,Wind Direction,Wind SpeedMPH,Gust SpeedMPH,PrecipitationIn,Events,Conditions,WindDirDegrees,DateUTC
12:15 AM,37.4,35.6,93,29.85,10.0,East,4.6,-,N/A,,Overcast,100,2013-02-04 09:15:00
2:22 AM,35.6,35.6,100,29.88,10.0,East,6.9,-,N/A,,Overcast,90,2013-02-04 11:22:00
3:50 AM,37.4,35.6,93,29.87,4.0,Calm,Calm,-,0.01,Rain,Rain,0,2013-02-04 12:50:00
3:53 AM,37.0,36.0,96,29.87,3.0,Calm,Calm,-,0.02,Rain,Rain,0,2013-02-04 12:53:00
4:26 AM,35.6,35.6,100,29.87,10.0,East,5.8,-,0.00,,Overcast,100,2013-02-04 13:26:00
4:53 AM,36.0,35.1,97,29.87,10.0,East,5.8,-,0.00,,Overcast,90,2013-02-04 13:53:00
5:53 AM,36.0,35.1,97,29.85,10.0,East,8.1,-,N/A,,Overcast,100,2013-02-04 14:53:00
6:00 AM,35.6,35.6,100,29.85,10.0,ESE,8.1,-,N/A,,Overcast,110,2013-02-04 15:00:00
6:53 AM,36.0,35.1,97,29.86,10.0,SSE,8.1,-,N/A,,Overcast,150,2013-02-04 15:53:00
7:10 AM,37.4,35.6,93,29.86,5.0,SE,4.6,-,0.01,Rain,Rain,140,2013-02-04 16:10:00
7:23 AM,35.6,33.8,93,29.85,10.0,East,6.9,-,0.02,Rain,Light Rain,90,2013-02-04 16:23:00
7:53 AM,36.0,35.1,97,29.85,10.0,East,3.5,-,0.02,,Mostly Cloudy,80,2013-02-04 16:53:00
8:53 AM,36.0,34.0,93,29.86,10.0,East,6.9,-,N/A,,Scattered Clouds,90,2013-02-04 17:53:00
9:53 AM,37.0,35.1,93,29.87,10.0,East,4.6,-,N/A,,Mostly Cloudy,100,2013-02-04 18:53:00
10:53 AM,39.9,35.1,83,29.85,10.0,Calm,Calm,-,N/A,,Mostly Cloudy,0,2013-02-04 19:53:00
11:53 AM,39.9,33.1,77,29.82,10.0,East,6.9,-,N/A,,Mostly Cloudy,100,2013-02-04 20:53:00
12:53 PM,39.9,32.0,73,29.80,10.0,ESE,4.6,-,N/A,,Overcast,120,2013-02-04 21:53:00
1:53 PM,39.9,30.9,70,29.78,10.0,East,6.9,-,N/A,,Overcast,90,2013-02-04 22:53:00
2:53 PM,39.0,34.0,82,29.75,10.0,NNW,3.5,-,N/A,,Mostly Cloudy,340,2013-02-04 23:53:00
3:53 PM,39.0,30.9,73,29.74,10.0,East,6.9,-,N/A,,Overcast,100,2013-02-05 00:53:00
4:53 PM,37.9,30.9,76,29.70,10.0,Calm,Calm,-,N/A,,Overcast,0,2013-02-05 01:53:00
5:53 PM,36.0,30.9,82,29.65,10.0,Calm,Calm,-,N/A,,Clear,0,2013-02-05 02:53:00
6:53 PM,37.0,33.1,86,29.60,10.0,NNW,4.6,-,N/A,,Clear,330,2013-02-05 03:53:00
7:53 PM,37.9,28.0,68,29.56,10.0,Calm,Calm,-,N/A,,Clear,0,2013-02-05 04:53:00
8:53 PM,39.9,21.9,49,29.52,10.0,East,3.5,-,N/A,,Clear,100,2013-02-05 05:53:00
9:53 PM,39.9,24.1,53,29.47,10.0,Calm,Calm,-,N/A,,Clear,0,2013-02-05 06:53:00
10:53 PM,42.1,19.9,41,29.45,10.0,East,20.7,26.5,N/A,,Clear,100,2013-02-05 07:53:00
11:53 PM,42.1,18.0,38,29.42,10.0,Variable,4.6,-,N/A,,Overcast,0,2013-02-05 08:53:00